Weather History for KOKC - November, 2012

Change the Weather History Date:

Tuesday, November 6, 2012

  Actual Average Record
Temperature  
Mean Temperature 53 °F 55 °F  
Max Temperature 72 °F 66 °F 85 °F (1980)
Min Temperature 34 °F 44 °F 20 °F (1951)
Degree Days  
Heating Degree Days 12 11  
Month to date heating degree days 43 58  
Since 1 July heating degree days 240 222  
Cooling Degree Days 0 1  
Month to date cooling degree days 2 6  
Year to date cooling degree days 2494 2098  
Growing Degree Days 3 (Base 50)    
Moisture  
Dew Point 36 °F    
Average Humidity 57    
Maximum Humidity 85    
Minimum Humidity 29    
Precipitation  
Precipitation 0.00 in 0.08 in 2.14 in (1895)
Month to date precipitation 0.00 0.51  
Year to date precipitation 27.99 33.17  
Snow  
Snow 0.00 in 0.00 in T in (1953)
Month to date snowfall 0.0 0.0  
Since 1 July snowfall 0.0 T  
Snow Depth -    
Sea Level Pressure  
Sea Level Pressure 30.11 in    
Wind  
Wind Speed 7 mph (NW)    
Max Wind Speed 18 mph    
Max Gust Speed 22 mph    
Visibility 10 miles    
Events      
T = Trace of Precipitation, MM = Missing Value Source: NWS Daily Summary

Daily Weather History Graph

Daily Weather History Graph

Search for Another Location

Airport or City:

Trip Planner

Search our weather history database for the weather conditions in past years. The results will help you decide how hot, cold, wet, or windy it might be!

Date:

Astronomy

Nov. 06, 2012 Rise Set
Actual Time 6:57 AM CST 5:30 PM CST
Civil Twilight 6:30 AM CST 5:56 PM CST
Nautical Twilight 6:00 AM CST 6:27 PM CST
Astronomical Twilight 5:30 AM CST 6:57 PM CST
Moon No Moon Rise 12:52 PM CST (11/6)
Length of Visible Light 11h 26m
Length of Day
10h 33m
Waning Gibbous, 53% of the Moon is Illuminated
Nov 6
Waning Gibbous
Nov 6
Last Quarter
Nov 13
New
Nov 20
First Quarter
Nov 28
Full

Hourly Weather History & Observations

Time (CST) Temp. Windchill Dew Point Humidity Pressure Visibility Wind Dir Wind Speed Gust Speed Precip Events Conditions
12:52 AM 45.0 °F 43.5 °F 34.0 °F 65% 30.12 in 10.0 mi NW 3.5 mph - N/A   Scattered Clouds
1:52 AM 44.6 °F - 35.6 °F 71% 30.12 in 10.0 mi Calm Calm - N/A   Scattered Clouds
2:52 AM 42.8 °F - 33.8 °F 70% 30.12 in 10.0 mi Calm Calm - N/A   Partly Cloudy
3:52 AM 39.9 °F - 33.1 °F 77% 30.11 in 10.0 mi Calm Calm - N/A   Partly Cloudy
4:52 AM 41.0 °F - 34.0 °F 76% 30.12 in 10.0 mi Calm Calm - N/A   Partly Cloudy
5:52 AM 35.1 °F 31.0 °F 30.9 °F 85% 30.12 in 10.0 mi SW 4.6 mph - N/A   Partly Cloudy
6:52 AM 37.0 °F 33.3 °F 32.0 °F 82% 30.12 in 10.0 mi SW 4.6 mph - N/A   Mostly Cloudy
7:52 AM 39.9 °F - 36.0 °F 86% 30.12 in 10.0 mi Calm Calm - N/A   Scattered Clouds
8:52 AM 48.9 °F - 37.9 °F 66% 30.13 in 10.0 mi SW 9.2 mph - N/A   Partly Cloudy
9:52 AM 55.0 °F - 37.9 °F 53% 30.12 in 10.0 mi SSW 10.4 mph - N/A   Scattered Clouds
10:52 AM 60.1 °F - 37.9 °F 44% 30.11 in 10.0 mi SW 10.4 mph - N/A   Partly Cloudy
11:52 AM 63.0 °F - 39.0 °F 41% 30.10 in 10.0 mi WSW 11.5 mph - N/A   Partly Cloudy
12:52 PM 69.1 °F - 37.9 °F 32% 30.07 in 10.0 mi WSW 11.5 mph - N/A   Partly Cloudy
1:52 PM 70.0 °F - 37.9 °F 31% 30.05 in 10.0 mi NW 11.5 mph - N/A   Partly Cloudy
2:52 PM 72.0 °F - 37.0 °F 28% 30.05 in 10.0 mi NNW 12.7 mph - N/A   Partly Cloudy
3:52 PM 70.0 °F - 37.9 °F 31% 30.06 in 10.0 mi North 12.7 mph - N/A   Partly Cloudy
4:52 PM 68.0 °F - 36.0 °F 31% 30.07 in 10.0 mi North 15.0 mph - N/A   Partly Cloudy
5:52 PM 62.1 °F - 37.0 °F 39% 30.10 in 10.0 mi North 5.8 mph - N/A   Partly Cloudy
6:52 PM 57.0 °F - 37.9 °F 49% 30.13 in 10.0 mi NNW 4.6 mph - N/A   Partly Cloudy
7:52 PM 57.9 °F - 37.0 °F 46% 30.13 in 10.0 mi NW 3.5 mph - N/A   Partly Cloudy
8:52 PM 59.0 °F - 35.1 °F 41% 30.13 in 10.0 mi North 8.1 mph - N/A   Partly Cloudy
9:52 PM 54.0 °F - 35.1 °F 49% 30.14 in 10.0 mi North 6.9 mph - N/A   Partly Cloudy
10:52 PM 53.1 °F - 35.1 °F 50% 30.13 in 10.0 mi North 5.8 mph - N/A   Partly Cloudy
11:52 PM 51.1 °F - 35.1 °F 54% 30.13 in 10.0 mi NNW 5.8 mph - N/A   Clear